SWA1681 KSJC-KDEN

Flight info

Callsign SWA1681
Flight time N/A
Altitude 39000
Route LOUPE1 TIPRE Q126 INSLO DTA KAMPR LONGZ4
Aircraft B38M/M-SADE2E3GHIJ4J7P2RWZ/LB1D1

Departure

Time N/A
Airport Norman Y. Mineta San Jose International Airport (KSJC)

Arrival

Time 2026-05-06 03:36
Airport Denver International Airport (KDEN)
Time Latitude Longitude Altitude Speed Heading
2026-05-06 03:25 39.82428 -104.80800 13226 ft 195 kts 187°
2026-05-06 03:25 39.81049 -104.80836 13143 ft 201 kts 187°
2026-05-06 03:25 39.79643 -104.80873 12955 ft 203 kts 187°
2026-05-06 03:26 39.78234 -104.80902 12493 ft 202 kts 185°
2026-05-06 03:26 39.76834 -104.80919 11924 ft 201 kts 184°
2026-05-06 03:26 39.75442 -104.80934 11363 ft 199 kts 183°
2026-05-06 03:26 39.74067 -104.80949 10809 ft 196 kts 182°
2026-05-06 03:27 39.72715 -104.80964 10263 ft 192 kts 181°
2026-05-06 03:27 39.72275 -104.80970 10087 ft 191 kts 180°
2026-05-06 03:27 39.71394 -104.80980 9713 ft 189 kts 179°
2026-05-06 03:27 39.70085 -104.80996 9180 ft 186 kts 179°
2026-05-06 03:28 39.68814 -104.81011 8959 ft 182 kts 179°
2026-05-06 03:28 39.67558 -104.81026 8932 ft 178 kts 179°
2026-05-06 03:28 39.66338 -104.81041 8937 ft 174 kts 179°
2026-05-06 03:28 39.65133 -104.80971 8914 ft 173 kts 164°
2026-05-06 03:29 39.64188 -104.80097 8877 ft 170 kts 122°
2026-05-06 03:29 39.63922 -104.78614 8945 ft 173 kts 91°
2026-05-06 03:29 39.63990 -104.77041 9026 ft 176 kts 88°
2026-05-06 03:29 39.64083 -104.75460 9013 ft 176 kts 87°
2026-05-06 03:30 39.64176 -104.73907 9000 ft 171 kts 88°
2026-05-06 03:30 39.64267 -104.72399 8987 ft 166 kts 87°
2026-05-06 03:30 39.64430 -104.70926 8960 ft 164 kts 83°
2026-05-06 03:30 39.64912 -104.69607 8866 ft 167 kts 38°
2026-05-06 03:31 39.66015 -104.69342 8836 ft 167 kts 352°
2026-05-06 03:31 39.67159 -104.69133 9012 ft 171 kts 11°
2026-05-06 03:31 39.68353 -104.69190 9006 ft 174 kts 355°
2026-05-06 03:31 39.69503 -104.69159 8817 ft 173 kts
2026-05-06 03:32 39.70688 -104.69001 8543 ft 170 kts
2026-05-06 03:32 39.71867 -104.68899 8278 ft 169 kts
2026-05-06 03:32 39.72261 -104.68884 8199 ft 168 kts
2026-05-06 03:33 39.75082 -104.68847 7699 ft 168 kts
2026-05-06 03:33 39.75796 -104.68838 7557 ft 167 kts
2026-05-06 03:33 39.76952 -104.68826 7342 ft 165 kts
2026-05-06 03:33 39.78098 -104.68813 7161 ft 164 kts
2026-05-06 03:34 39.79204 -104.68799 6953 ft 163 kts
2026-05-06 03:34 39.80336 -104.68787 6735 ft 162 kts
2026-05-06 03:34 39.81463 -104.68775 6524 ft 162 kts
2026-05-06 03:34 39.82584 -104.68761 6245 ft 160 kts
2026-05-06 03:35 39.83685 -104.68747 5976 ft 156 kts
2026-05-06 03:35 39.84760 -104.68736 5738 ft 152 kts 360°
2026-05-06 03:35 39.85740 -104.68726 5534 ft 150 kts 360°
2026-05-06 03:35 39.86784 -104.68719 5399 ft 150 kts 360°
2026-05-06 03:36 39.87775 -104.68702 5361 ft 121 kts 359°
2026-05-06 03:36 39.88346 -104.68694 5365 ft 23 kts 11°
2026-05-06 03:36 39.88463 -104.68660 5366 ft 20 kts 17°
2026-05-06 03:36 39.88600 -104.68565 5365 ft 18 kts 41°
2026-05-06 03:37 39.88616 -104.68492 5367 ft 0 kts 133°
2026-05-06 03:37 39.88593 -104.68483 5365 ft 9 kts 167°
2026-05-06 03:37 39.88510 -104.68484 5364 ft 14 kts 179°
2026-05-06 03:37 39.88408 -104.68483 5365 ft 15 kts 180°
2026-05-06 03:38 39.88294 -104.68485 5364 ft 17 kts 181°
2026-05-06 03:38 39.88172 -104.68486 5363 ft 19 kts 180°
2026-05-06 03:38 39.88036 -104.68487 5361 ft 20 kts 181°
2026-05-06 03:38 39.87889 -104.68490 5361 ft 22 kts 180°
2026-05-06 03:39 39.87731 -104.68492 5360 ft 23 kts 180°
2026-05-06 03:39 39.87565 -104.68493 5360 ft 23 kts 180°
2026-05-06 03:39 39.87497 -104.68425 5360 ft 12 kts 111°
2026-05-06 03:39 39.87433 -104.68380 5360 ft 11 kts 179°
2026-05-06 03:40 39.87356 -104.68380 5362 ft 13 kts 180°
2026-05-06 03:40 39.87241 -104.68381 5364 ft 21 kts 180°
2026-05-06 03:40 39.87076 -104.68381 5365 ft 25 kts 180°
2026-05-06 03:40 39.86903 -104.68384 5366 ft 25 kts 181°
2026-05-06 03:41 39.86780 -104.68387 5367 ft 25 kts 180°
2026-05-06 03:41 39.86627 -104.68388 5367 ft 25 kts 180°
2026-05-06 03:41 39.86459 -104.68378 5371 ft 21 kts 152°
2026-05-06 03:41 39.86423 -104.68218 5372 ft 19 kts 95°
2026-05-06 03:42 39.86418 -104.68045 5378 ft 18 kts 90°
2026-05-06 03:42 39.86417 -104.67873 5377 ft 20 kts 91°
2026-05-06 03:42 39.86415 -104.67699 5377 ft 21 kts 91°
2026-05-06 03:42 39.86413 -104.67511 5377 ft 17 kts 95°
2026-05-06 03:43 39.86385 -104.67469 5378 ft 1 kts 179°
2026-05-06 03:43 39.86375 -104.67469 5376 ft 2 kts 179°
2026-05-06 03:43 39.86366 -104.67471 5377 ft 1 kts 192°
2026-05-06 03:43 39.86358 -104.67474 5376 ft 0 kts 193°